ANA779 RJOO-RJCC

Flight info

Callsign ANA779
Flight time 1h 20m
Altitude 37000
Route GUJYO Y13 SIRAO Y139 NAVER
Aircraft B772/H-SDE2E3FGHIJ5LORVWXY/LB1D1

Departure

Time 2026-05-04 18:12
Airport Osaka Itami International Airport (RJOO)

Arrival

Time 2026-05-04 19:32
Airport New Chitose Airport (RJCC)
Time Latitude Longitude Altitude Speed Heading
2026-05-04 17:43 34.78867 135.44226 46 ft 0 kts 31°
2026-05-04 17:59 34.78861 135.44222 46 ft 2 kts 30°
2026-05-04 17:59 34.78847 135.44211 44 ft 2 kts 31°
2026-05-04 17:59 34.78819 135.44191 45 ft 2 kts 31°
2026-05-04 18:00 34.78805 135.44180 44 ft 2 kts 31°
2026-05-04 18:00 34.78790 135.44170 44 ft 2 kts 32°
2026-05-04 18:00 34.78777 135.44159 44 ft 2 kts 38°
2026-05-04 18:00 34.78765 135.44145 46 ft 2 kts 60°
2026-05-04 18:01 34.78759 135.44126 46 ft 2 kts 89°
2026-05-04 18:01 34.78762 135.44106 44 ft 2 kts 118°
2026-05-04 18:01 34.78766 135.44097 44 ft 1 kts 131°
2026-05-04 18:05 34.78759 135.44106 45 ft 6 kts 131°
2026-05-04 18:05 34.78706 135.44173 44 ft 15 kts 136°
2026-05-04 18:05 34.78631 135.44261 46 ft 15 kts 136°
2026-05-04 18:06 34.78474 135.44334 46 ft 12 kts 181°
2026-05-04 18:06 34.78389 135.44333 47 ft 12 kts 179°
2026-05-04 18:06 34.78303 135.44335 47 ft 12 kts 180°
2026-05-04 18:07 34.78218 135.44336 46 ft 12 kts 179°
2026-05-04 18:07 34.78143 135.44379 45 ft 12 kts 139°
2026-05-04 18:07 34.78081 135.44449 46 ft 12 kts 136°
2026-05-04 18:07 34.78020 135.44522 46 ft 12 kts 135°
2026-05-04 18:08 34.77959 135.44595 46 ft 12 kts 135°
2026-05-04 18:08 34.77898 135.44668 44 ft 12 kts 135°
2026-05-04 18:08 34.77838 135.44741 46 ft 12 kts 135°
2026-05-04 18:08 34.77779 135.44815 46 ft 12 kts 134°
2026-05-04 18:09 34.77632 135.44945 46 ft 13 kts 154°
2026-05-04 18:09 34.77498 135.45015 47 ft 0 kts 172°
2026-05-04 18:11 34.77482 135.45015 47 ft 6 kts 182°
2026-05-04 18:11 34.77443 135.44994 48 ft 7 kts 218°
2026-05-04 18:11 34.77432 135.44935 49 ft 8 kts 293°
2026-05-04 18:11 34.77484 135.44865 48 ft 25 kts 314°
2026-05-04 18:12 34.77772 135.44517 46 ft 98 kts 315°
2026-05-04 18:12 34.78435 135.43715 168 ft 158 kts 315°
2026-05-04 18:12 34.79132 135.42771 1233 ft 149 kts 304°
2026-05-04 18:12 34.79476 135.41523 1977 ft 162 kts 284°
2026-05-04 18:13 34.79675 135.40053 2173 ft 190 kts 274°
2026-05-04 18:13 34.79261 135.38409 2354 ft 224 kts 236°
2026-05-04 18:13 34.76129 135.37231 3111 ft 271 kts 161°
2026-05-04 18:14 34.74585 135.38528 3814 ft 274 kts 125°
2026-05-04 18:14 34.73902 135.40642 4591 ft 270 kts 90°
2026-05-04 18:14 34.74304 135.42807 5355 ft 262 kts 56°
2026-05-04 18:15 34.76033 135.46793 6618 ft 272 kts 60°
2026-05-04 18:15 34.77709 135.50951 8091 ft 280 kts 58°
2026-05-04 18:15 34.78595 135.53088 8802 ft 285 kts 57°
2026-05-04 18:16 34.79338 135.55343 9375 ft 298 kts 75°
2026-05-04 18:16 34.79355 135.57922 9913 ft 311 kts 89°
2026-05-04 18:16 34.79203 135.60596 10342 ft 327 kts 89°
2026-05-04 18:17 34.78922 135.66481 11281 ft 362 kts 89°
2026-05-04 18:17 34.78783 135.69576 12078 ft 370 kts 89°
2026-05-04 18:17 34.79448 135.75763 13808 ft 372 kts 66°
2026-05-04 18:18 34.80353 135.78731 14588 ft 378 kts 64°
2026-05-04 18:18 34.81336 135.81738 15379 ft 386 kts 64°
2026-05-04 18:18 34.82326 135.84758 16176 ft 393 kts 64°
2026-05-04 18:18 34.83332 135.87892 16946 ft 402 kts 65°
2026-05-04 18:19 34.85361 135.94384 18475 ft 418 kts 66°
2026-05-04 18:19 34.86389 135.97725 19160 ft 425 kts 66°
2026-05-04 18:19 34.87431 136.01132 19787 ft 433 kts 67°
2026-05-04 18:20 34.88492 136.04603 20433 ft 440 kts 67°
2026-05-04 18:20 34.89568 136.08127 21074 ft 447 kts 68°
2026-05-04 18:20 34.90661 136.11704 21703 ft 455 kts 68°
2026-05-04 18:20 34.91821 136.15309 22232 ft 458 kts 62°
2026-05-04 18:21 34.93603 136.18523 22667 ft 460 kts 41°
2026-05-04 18:21 34.96046 136.20969 23288 ft 454 kts 30°
2026-05-04 18:21 34.98635 136.23245 23800 ft 463 kts 29°
2026-05-04 18:21 35.01275 136.25568 24320 ft 471 kts 30°
2026-05-04 18:22 35.03941 136.27940 24872 ft 478 kts 30°
2026-05-04 18:22 35.06638 136.30368 25387 ft 486 kts 30°
2026-05-04 18:22 35.09372 136.32853 25913 ft 493 kts 31°
2026-05-04 18:22 35.12138 136.35383 26409 ft 501 kts 31°
2026-05-04 18:23 35.14947 136.37960 26855 ft 509 kts 31°
2026-05-04 18:23 35.17795 136.40570 27344 ft 515 kts 31°
2026-05-04 18:23 35.20675 136.43216 27891 ft 520 kts 30°
2026-05-04 18:23 35.23580 136.45888 28325 ft 527 kts 30°
2026-05-04 18:24 35.26528 136.48598 28762 ft 534 kts 30°
2026-05-04 18:24 35.29515 136.51346 29224 ft 540 kts 30°
2026-05-04 18:24 35.32531 136.54125 29647 ft 546 kts 30°
2026-05-04 18:24 35.35588 136.56943 30070 ft 552 kts 30°
2026-05-04 18:25 35.38615 136.59735 30431 ft 557 kts 30°
2026-05-04 18:25 35.41727 136.62610 30848 ft 560 kts 30°
2026-05-04 18:25 35.44840 136.65491 31307 ft 562 kts 30°
2026-05-04 18:25 35.47962 136.68386 31748 ft 564 kts 30°
2026-05-04 18:26 35.51098 136.71296 32145 ft 566 kts 30°
2026-05-04 18:26 35.54248 136.74222 32495 ft 570 kts 30°
2026-05-04 18:26 35.57416 136.77167 32836 ft 573 kts 30°
2026-05-04 18:26 35.60602 136.80132 33194 ft 576 kts 30°
2026-05-04 18:27 35.63800 136.83113 33516 ft 578 kts 30°
2026-05-04 18:27 35.67018 136.86115 33863 ft 581 kts 30°
2026-05-04 18:27 35.70242 136.89125 34137 ft 583 kts 30°
2026-05-04 18:27 35.73468 136.92142 34437 ft 583 kts 31°
2026-05-04 18:28 35.76692 136.95161 34819 ft 581 kts 31°
2026-05-04 18:28 35.79905 136.98173 35255 ft 579 kts 30°
2026-05-04 18:28 35.83102 137.01171 35658 ft 578 kts 30°
2026-05-04 18:28 35.86310 137.04181 35979 ft 579 kts 30°
2026-05-04 18:29 35.89506 137.07182 36356 ft 577 kts 30°
2026-05-04 18:29 35.92700 137.10185 36781 ft 576 kts 30°
2026-05-04 18:29 35.95879 137.13179 37170 ft 574 kts 30°
2026-05-04 18:29 35.99050 137.16168 37572 ft 573 kts 30°
2026-05-04 18:30 36.04303 137.21126 38185 ft 571 kts 30°
2026-05-04 18:30 36.07461 137.24108 38514 ft 570 kts 30°
2026-05-04 18:30 36.10606 137.27082 38844 ft 569 kts 30°
2026-05-04 18:31 36.14774 137.31029 39094 ft 571 kts 30°
2026-05-04 18:31 36.21067 137.37000 39158 ft 568 kts 30°
2026-05-04 18:32 36.26304 137.41981 39160 ft 565 kts 31°
2026-05-04 18:32 36.32527 137.47906 39148 ft 564 kts 30°
2026-05-04 18:33 36.38701 137.53800 39131 ft 563 kts 31°
2026-05-04 18:33 36.44893 137.59720 39141 ft 562 kts 31°
2026-05-04 18:34 36.51071 137.65645 39183 ft 559 kts 31°
2026-05-04 18:34 36.57326 137.71401 39143 ft 553 kts 25°
2026-05-04 18:35 36.63868 137.76477 39144 ft 558 kts 24°
2026-05-04 18:35 36.70503 137.81543 39159 ft 560 kts 24°
2026-05-04 18:36 36.77138 137.86669 39155 ft 563 kts 24°
2026-05-04 18:36 36.83779 137.91854 39165 ft 564 kts 25°
2026-05-04 18:37 36.90389 137.97032 39157 ft 565 kts 25°
2026-05-04 18:37 36.97024 138.02240 39132 ft 562 kts 25°
2026-05-04 18:38 37.03633 138.07433 39134 ft 559 kts 25°
2026-05-04 18:38 37.10207 138.12604 39142 ft 557 kts 25°
2026-05-04 18:39 37.16759 138.17768 39136 ft 556 kts 25°
2026-05-04 18:39 37.23299 138.22936 39122 ft 555 kts 25°
2026-05-04 18:40 37.29836 138.28112 39120 ft 555 kts 25°
2026-05-04 18:40 37.36365 138.33292 39121 ft 555 kts 25°
2026-05-04 18:41 37.42902 138.38490 39122 ft 556 kts 25°
2026-05-04 18:41 37.49394 138.43662 39122 ft 556 kts 25°
2026-05-04 18:42 37.55937 138.48888 39124 ft 556 kts 26°
2026-05-04 18:42 37.62476 138.54121 39122 ft 556 kts 26°
2026-05-04 18:43 37.69018 138.59367 39112 ft 556 kts 26°
2026-05-04 18:43 37.75515 138.64588 39105 ft 556 kts 26°
2026-05-04 18:44 37.82053 138.69853 39106 ft 556 kts 26°
2026-05-04 18:44 37.88577 138.75118 39100 ft 556 kts 26°
2026-05-04 18:45 37.95099 138.80393 39096 ft 556 kts 26°
2026-05-04 18:45 38.01617 138.85677 39093 ft 556 kts 26°
2026-05-04 18:46 38.08125 138.90963 39088 ft 556 kts 26°
2026-05-04 18:46 38.14593 138.96227 39077 ft 556 kts 26°
2026-05-04 18:47 38.21115 139.01541 39086 ft 556 kts 26°
2026-05-04 18:47 38.27630 139.06860 39083 ft 556 kts 26°
2026-05-04 18:48 38.34142 139.12190 39078 ft 556 kts 26°
2026-05-04 18:48 38.40613 139.17498 39078 ft 557 kts 27°
2026-05-04 18:49 38.47131 139.22858 39077 ft 557 kts 27°
2026-05-04 18:49 38.53657 139.28235 39073 ft 557 kts 27°
2026-05-04 18:50 38.60135 139.33585 39074 ft 557 kts 27°
2026-05-04 18:50 38.66653 139.38979 39064 ft 558 kts 27°
2026-05-04 18:51 38.73166 139.44381 39057 ft 558 kts 27°
2026-05-04 18:51 38.79680 139.49796 39052 ft 558 kts 27°
2026-05-04 18:52 38.86191 139.55221 39054 ft 558 kts 27°
2026-05-04 18:52 38.92706 139.60661 39055 ft 558 kts 27°
2026-05-04 18:53 38.99176 139.66075 39055 ft 558 kts 27°
2026-05-04 18:53 39.05877 139.70961 39050 ft 549 kts 17°
2026-05-04 18:54 39.12903 139.74729 39042 ft 546 kts 15°
2026-05-04 18:54 39.19947 139.78392 39041 ft 546 kts 15°
2026-05-04 18:55 39.26980 139.82136 39040 ft 547 kts 15°
2026-05-04 18:55 39.37472 139.87822 39044 ft 548 kts 16°
2026-05-04 18:56 39.44510 139.91646 39046 ft 548 kts 16°
2026-05-04 18:56 39.51536 139.95465 39047 ft 548 kts 16°
2026-05-04 18:57 39.58568 139.99295 39042 ft 547 kts 16°
2026-05-04 18:57 39.65545 140.03105 39036 ft 547 kts 16°
2026-05-04 18:58 39.72550 140.06948 39029 ft 547 kts 17°
2026-05-04 18:58 39.79478 140.11130 39026 ft 549 kts 19°
2026-05-04 18:59 39.86355 140.15491 39030 ft 549 kts 19°
2026-05-04 18:59 39.93246 140.19823 39030 ft 548 kts 19°
2026-05-04 19:00 40.00088 140.24077 39030 ft 548 kts 19°
2026-05-04 19:00 40.06993 140.28364 39021 ft 548 kts 19°
2026-05-04 19:01 40.13873 140.32649 39016 ft 548 kts 19°
2026-05-04 19:01 40.20762 140.36953 39014 ft 548 kts 19°
2026-05-04 19:02 40.27646 140.41265 39013 ft 549 kts 19°
2026-05-04 19:02 40.34536 140.45593 38995 ft 549 kts 19°
2026-05-04 19:03 40.41425 140.49928 39007 ft 549 kts 19°
2026-05-04 19:03 40.48285 140.54253 38981 ft 550 kts 19°
2026-05-04 19:04 40.55197 140.58623 38957 ft 551 kts 20°
2026-05-04 19:04 40.62106 140.63000 38933 ft 551 kts 20°
2026-05-04 19:05 40.65563 140.65195 38769 ft 553 kts 20°
2026-05-04 19:05 40.69066 140.67418 37977 ft 559 kts 20°
2026-05-04 19:05 40.72559 140.69640 37290 ft 555 kts 20°
2026-05-04 19:05 40.76074 140.71682 36576 ft 549 kts 16°
2026-05-04 19:06 40.79637 140.73457 35882 ft 546 kts 14°
2026-05-04 19:06 40.83163 140.75121 35112 ft 545 kts 14°
2026-05-04 19:06 40.86785 140.76848 34259 ft 547 kts 15°
2026-05-04 19:06 40.90356 140.78599 33285 ft 549 kts 15°
2026-05-04 19:07 40.93933 140.80375 32313 ft 548 kts 15°
2026-05-04 19:07 40.97474 140.82138 31742 ft 539 kts 15°
2026-05-04 19:07 41.00914 140.83854 31196 ft 531 kts 15°
2026-05-04 19:07 41.04339 140.85560 30658 ft 523 kts 15°
2026-05-04 19:08 41.07722 140.87243 30140 ft 515 kts 15°
2026-05-04 19:08 41.11057 140.88900 29482 ft 509 kts 16°
2026-05-04 19:08 41.14350 140.90538 28830 ft 502 kts 16°
2026-05-04 19:08 41.17598 140.92155 28218 ft 495 kts 16°
2026-05-04 19:09 41.20776 140.93742 27595 ft 474 kts 16°
2026-05-04 19:09 41.23754 140.95238 27021 ft 441 kts 16°
2026-05-04 19:09 41.26601 140.96659 26511 ft 436 kts 16°
2026-05-04 19:09 41.29439 140.98071 25975 ft 438 kts 16°
2026-05-04 19:10 41.32313 140.99497 25402 ft 442 kts 16°
2026-05-04 19:10 41.35189 141.00906 24840 ft 438 kts 16°
2026-05-04 19:10 41.38032 141.02295 24277 ft 433 kts 16°
2026-05-04 19:10 41.40845 141.03671 23711 ft 428 kts 16°
2026-05-04 19:11 41.43624 141.05033 23074 ft 423 kts 16°
2026-05-04 19:11 41.46365 141.06379 22461 ft 418 kts 16°
2026-05-04 19:11 41.49077 141.07717 21887 ft 411 kts 16°
2026-05-04 19:11 41.51742 141.09037 21325 ft 406 kts 16°
2026-05-04 19:12 41.54375 141.10341 20771 ft 401 kts 16°
2026-05-04 19:12 41.59553 141.12907 19688 ft 393 kts 16°
2026-05-04 19:12 41.62099 141.14170 19148 ft 389 kts 16°
2026-05-04 19:13 41.64592 141.15408 18625 ft 386 kts 16°
2026-05-04 19:13 41.67098 141.16653 18092 ft 383 kts 15°
2026-05-04 19:13 41.69615 141.17907 17493 ft 379 kts 16°
2026-05-04 19:13 41.72075 141.19145 16964 ft 375 kts 16°
2026-05-04 19:14 41.74501 141.20370 16459 ft 371 kts 16°
2026-05-04 19:14 41.76877 141.21571 15960 ft 367 kts 16°
2026-05-04 19:14 41.79257 141.22773 15469 ft 364 kts 16°
2026-05-04 19:14 41.81622 141.23968 14984 ft 360 kts 16°
2026-05-04 19:15 41.83957 141.25149 14510 ft 357 kts 16°
2026-05-04 19:15 41.86268 141.26318 14041 ft 354 kts 16°
2026-05-04 19:15 41.88567 141.27482 13545 ft 351 kts 16°
2026-05-04 19:15 41.90843 141.28642 13016 ft 348 kts 16°
2026-05-04 19:16 41.93087 141.29794 12611 ft 342 kts 16°
2026-05-04 19:16 41.95261 141.31072 12160 ft 340 kts 23°
2026-05-04 19:16 41.97273 141.32757 11688 ft 340 kts 30°
2026-05-04 19:16 41.99119 141.34735 11204 ft 340 kts 37°
2026-05-04 19:17 42.00830 141.36911 10727 ft 337 kts 39°
2026-05-04 19:17 42.02457 141.39032 10567 ft 320 kts 39°
2026-05-04 19:17 42.03952 141.40992 10414 ft 281 kts 38°
2026-05-04 19:17 42.05272 141.42714 10282 ft 248 kts 37°
2026-05-04 19:18 42.06451 141.44237 10191 ft 223 kts 36°
2026-05-04 19:18 42.07628 141.45728 10169 ft 251 kts 36°
2026-05-04 19:18 42.08947 141.47401 10019 ft 264 kts 37°
2026-05-04 19:18 42.10293 141.49131 9708 ft 267 kts 37°
2026-05-04 19:19 42.11632 141.50858 9378 ft 265 kts 37°
2026-05-04 19:19 42.12977 141.52485 9050 ft 250 kts 28°
2026-05-04 19:19 42.14499 141.53475 8794 ft 239 kts 17°
2026-05-04 19:19 42.16039 141.54299 8512 ft 236 kts 17°
2026-05-04 19:20 42.17555 141.55114 8244 ft 233 kts 17°
2026-05-04 19:20 42.19037 141.55915 7972 ft 231 kts 17°
2026-05-04 19:20 42.20518 141.56719 7704 ft 228 kts 17°
2026-05-04 19:20 42.21983 141.57517 7437 ft 226 kts 17°
2026-05-04 19:21 42.23445 141.58315 7189 ft 229 kts 17°
2026-05-04 19:21 42.24943 141.59133 6921 ft 234 kts 17°
2026-05-04 19:21 42.26447 141.59959 6648 ft 232 kts 17°
2026-05-04 19:21 42.27938 141.60781 6369 ft 230 kts 17°
2026-05-04 19:22 42.29415 141.61595 6096 ft 228 kts 17°
2026-05-04 19:22 42.30880 141.62404 5817 ft 226 kts 17°
2026-05-04 19:22 42.32327 141.63203 5547 ft 223 kts 17°
2026-05-04 19:22 42.33755 141.63993 5284 ft 221 kts 17°
2026-05-04 19:23 42.34695 141.64513 5115 ft 219 kts 17°
2026-05-04 19:23 42.36102 141.65291 4853 ft 217 kts 17°
2026-05-04 19:23 42.37492 141.66061 4594 ft 216 kts 17°
2026-05-04 19:23 42.38901 141.66839 4357 ft 222 kts 17°
2026-05-04 19:24 42.40351 141.67641 4086 ft 226 kts 17°
2026-05-04 19:24 42.41809 141.68449 3807 ft 226 kts 18°
2026-05-04 19:24 42.43266 141.69259 3545 ft 225 kts 18°
2026-05-04 19:24 42.44716 141.70064 3276 ft 224 kts 18°
2026-05-04 19:25 42.46138 141.70853 3004 ft 224 kts 18°
2026-05-04 19:25 42.47598 141.71665 2726 ft 224 kts 18°
2026-05-04 19:25 42.49038 141.72465 2467 ft 224 kts 18°
2026-05-04 19:25 42.50455 141.73254 2202 ft 222 kts 17°
2026-05-04 19:26 42.51907 141.73668 2079 ft 211 kts 357°
2026-05-04 19:26 42.53393 141.73556 2028 ft 211 kts 353°
2026-05-04 19:26 42.54866 141.73369 2026 ft 215 kts 352°
2026-05-04 19:26 42.56354 141.73128 2021 ft 216 kts 351°
2026-05-04 19:27 42.57829 141.72873 2013 ft 216 kts 351°
2026-05-04 19:27 42.59322 141.72611 2012 ft 217 kts 351°
2026-05-04 19:27 42.60815 141.72348 2015 ft 216 kts 351°
2026-05-04 19:27 42.62264 141.72095 1988 ft 202 kts 351°
2026-05-04 19:28 42.63571 141.71866 2013 ft 175 kts 351°
2026-05-04 19:28 42.64684 141.71672 2009 ft 147 kts 351°
2026-05-04 19:28 42.65643 141.71504 1980 ft 131 kts 350°
2026-05-04 19:28 42.66492 141.71354 2009 ft 116 kts 350°
2026-05-04 19:29 42.67270 141.71217 1923 ft 111 kts 350°
2026-05-04 19:29 42.68027 141.71083 1778 ft 111 kts 350°
2026-05-04 19:29 42.68800 141.70947 1607 ft 113 kts 350°
2026-05-04 19:29 42.69571 141.70813 1435 ft 112 kts 350°
2026-05-04 19:30 42.70341 141.70684 1258 ft 112 kts 350°
2026-05-04 19:30 42.71141 141.70531 1121 ft 116 kts 351°
2026-05-04 19:30 42.71953 141.70400 901 ft 118 kts 350°
2026-05-04 19:30 42.72769 141.70250 713 ft 119 kts 352°
2026-05-04 19:31 42.73583 141.70106 562 ft 118 kts 352°
2026-05-04 19:31 42.74409 141.69964 383 ft 120 kts 348°
2026-05-04 19:31 42.75211 141.69804 306 ft 116 kts 354°
2026-05-04 19:31 42.76021 141.69674 158 ft 116 kts 350°
2026-05-04 19:32 42.76803 141.69528 87 ft 105 kts 353°
2026-05-04 19:32 42.77414 141.69429 89 ft 72 kts 354°
2026-05-04 19:32 42.77813 141.69362 86 ft 52 kts 351°
2026-05-04 19:32 42.78136 141.69295 87 ft 42 kts 345°
2026-05-04 19:33 42.78364 141.69132 89 ft 33 kts 322°
2026-05-04 19:33 42.78447 141.69006 88 ft 13 kts 280°
2026-05-04 19:33 42.78439 141.68874 86 ft 16 kts 261°
2026-05-04 19:33 42.78431 141.68711 83 ft 17 kts 284°
2026-05-04 19:34 42.78527 141.68637 87 ft 17 kts 349°
2026-05-04 19:34 42.78641 141.68617 86 ft 17 kts 353°
2026-05-04 19:34 42.78757 141.68598 87 ft 17 kts 353°
2026-05-04 19:34 42.78871 141.68574 88 ft 17 kts 346°
2026-05-04 19:35 42.78979 141.68518 87 ft 17 kts 332°
2026-05-04 19:35 42.79076 141.68435 88 ft 17 kts 322°
2026-05-04 19:35 42.79178 141.68366 87 ft 17 kts 349°
2026-05-04 19:35 42.79269 141.68348 84 ft 7 kts 358°
2026-05-04 19:36 42.79302 141.68386 86 ft 7 kts 66°
2026-05-04 19:36 42.79310 141.68427 87 ft 0 kts 76°